Location: Gro�sch�nbrunn
(49.5760°N, 11.8868°E)
Time: 08:29:46
(UTC+00:00)

N. Korean satellite - Pass Details

Date: 28 November 2020
Orbit: 453 x 502 km, 97.2° (Epoch: 16 January)

Event Time Altitude Azimuth Distance (km) Brightness Sun altitude
Rises 05:26:46 0° 5° (N) 2,547 10.1 -12.0°
Reaches altitude 10° 05:28:55 10° 357° (N) 1,671 9.1 -11.7°
Maximum altitude 05:32:13 35° 290° (WNW) 803 7.1 -11.2°
Drops below altitude 10° 05:35:33 10° 223° (SW) 1,683 9.1 -10.7°
Sets 05:37:44 0° 215° (SW) 2,568 10.1 -10.4°
